GW0980 Weather Reports


Display with metric or nautical units.
time (UTC)temp
F
wind
direction
speed
MPH
gust
MPH
rain 1hr
in
rain 24hr
in
rain mn
in
humidity
%
barometer
mb
20260902130058 58 0 0.0 4.0 0.00 0.00 0.00 84 1008.2
20260902124548 57 81 0.0 2.0 0.00 0.00 0.00 86 1008.3
20260902123056 56 0 0.0 0.0 0.00 0.00 0.00 89 1008.6
20260902121559 56 0 0.0 0.0 0.00 0.00 0.00 90 1008.8
20260902120047 56 0 0.0 0.0 0.00 0.00 0.00 90 1008.9
20260902114547 56 300 0.0 0.0 0.00 0.00 0.00 90 1009.3
20260902113103 56 0 0.0 0.0 0.00 0.00 0.00 90 1009.2
20260902111553 56 0 0.0 1.0 0.00 0.00 0.00 90 1009.7
20260902110051 56 0 0.0 0.0 0.00 0.00 0.00 89 1009.7
20260902104553 56 0 0.0 0.0 0.00 0.00 0.00 89 1009.8
20260902103051 57 0 0.0 0.0 0.00 0.00 0.00 89 1009.9
20260902101557 56 0 0.0 1.0 0.00 0.00 0.00 89 1010.1
20260902100104 57 0 0.0 0.0 0.00 0.00 0.00 89 1010.2
20260902094552 57 0 0.0 0.0 0.00 0.00 0.00 88 1010.3
20260902093051 57 0 0.0 1.0 0.00 0.00 0.00 88 1010.2
20260902091548 57 0 0.0 0.0 0.00 0.00 0.00 88 1010.5
20260902090158 57 0 0.0 0.0 0.00 0.00 0.00 88 1010.7
20260902084600 57 0 0.0 1.0 0.00 0.00 0.00 88 1010.8
20260902083048 57 0 0.0 0.0 0.00 0.00 0.00 88 1010.8
20260902081554 57 0 0.0 1.0 0.00 0.00 0.00 88 1010.9
20260902080042 57 0 0.0 1.0 0.00 0.00 0.00 88 1011.1
20260902074549 57 0 0.0 1.0 0.00 0.00 0.00 88 1011.2
20260902073052 57 0 0.0 0.0 0.00 0.00 0.00 87 1011.3
20260902071543 57 0 0.0 0.0 0.00 0.00 0.00 88 1011.4
20260902070052 57 0 0.0 1.0 0.00 0.00 0.00 87 1011.5
20260902064555 58 0 0.0 0.0 0.00 0.00 0.00 86 1011.4
20260902063050 58 0 0.0 0.0 0.00 0.00 0.00 86 1011.7
20260902061604 59 0 0.0 0.0 0.00 0.00 0.00 85 1011.8
20260902060048 59 0 0.0 0.0 0.00 0.00 0.00 84 1011.9
20260902054551 60 0 0.0 0.0 0.00 0.00 0.00 81 1012.0
20260902053050 60 0 0.0 0.0 0.00 0.00 0.00 78 1012.2
20260902051548 61 0 0.0 0.0 0.00 0.00 0.00 77 1012.2
20260902050059 61 0 0.0 0.0 0.00 0.00 0.00 77 1012.0
20260902044553 61 0 0.0 0.0 0.00 0.00 0.00 77 1012.1
20260902043051 61 0 0.0 0.0 0.00 0.00 0.00 76 1012.0
20260902041550 61 0 0.0 0.0 0.00 0.00 0.00 76 1012.0
20260902040048 62 0 0.0 0.0 0.00 0.00 0.00 73 1012.1
20260902034543 62 0 0.0 0.0 0.00 0.00 0.00 73 1012.1
20260902033050 62 0 0.0 3.0 0.00 0.00 0.00 74 1012.0
20260902031550 62 342 2.0 5.0 0.00 0.00 0.00 74 1012.2
20260902030048 61 293 1.0 4.0 0.00 0.00 0.00 75 1012.4
20260902024548 62 0 0.0 3.0 0.00 0.00 0.00 75 1012.1
20260902023052 62 301 3.0 6.0 0.00 0.00 0.00 74 1012.2
20260902021546 62 281 2.0 5.0 0.00 0.00 0.00 73 1012.1
20260902020049 62 302 1.0 5.0 0.00 0.00 0.00 73 1012.1
20260902014550 63 252 2.0 9.0 0.00 0.00 0.00 73 1012.1
20260902013047 63 255 2.0 7.0 0.00 0.00 0.00 71 1012.1
20260902011549 63 268 3.0 8.0 0.00 0.00 0.00 71 1012.0
20260902004549 63 283 4.0 8.0 0.00 0.00 0.00 70 1011.9
20260902003054 63 276 4.0 7.0 0.00 0.00 0.00 70 1011.9
20260902001550 63 304 4.0 9.0 0.00 0.00 0.00 71 1012.0
20260902000050 63 283 3.0 11.0 0.00 0.00 0.00 73 1012.0
20260901234548 63 70 5.0 11.0 0.00 0.00 0.00 72 1012.0
20260901233052 64 281 5.0 8.0 0.00 0.00 0.00 71 1011.9
20260901231549 63 277 6.0 13.0 0.00 0.00 0.00 72 1012.0
20260901230048 63 292 6.0 10.0 0.00 0.00 0.00 74 1012.1
20260901224601 62 283 5.0 9.0 0.00 0.00 0.00 76 1012.2
20260901223051 62 278 5.0 12.0 0.00 0.00 0.00 77 1012.0
20260901221557 62 300 4.0 12.0 0.00 0.00 0.00 77 1012.3
20260901220050 62 281 4.0 15.0 0.00 0.00 0.00 77 1012.1
20260901214559 62 259 6.0 11.0 0.00 0.00 0.00 77 1012.0
20260901213055 63 274 6.0 13.0 0.00 0.00 0.00 74 1011.8
20260901211552 65 283 4.0 7.0 0.00 0.00 0.00 70 1011.7
20260901210114 64 307 2.0 6.0 0.00 0.00 0.00 71 1011.7
20260901204546 64 284 2.0 10.0 0.00 0.00 0.00 71 1011.7
20260901203053 64 284 3.0 7.0 0.00 0.00 0.00 72 1011.8
20260901201549 64 279 1.0 4.0 0.00 0.00 0.00 74 1011.9
20260901194553 63 292 2.0 6.0 0.00 0.00 0.00 75 1012.0
20260901193049 63 273 2.0 4.0 0.00 0.00 0.00 76 1012.2
20260901191552 63 274 2.0 5.0 0.00 0.00 0.00 77 1012.1
20260901190054 65 290 3.0 9.0 0.00 0.00 0.00 72 1012.1
20260901184554 66 177 0.0 3.0 0.00 0.00 0.00 69 1012.3
20260901183103 66 0 0.0 1.0 0.00 0.00 0.00 70 1012.4
20260901181558 65 286 0.0 1.0 0.00 0.00 0.00 71 1012.3
20260901180053 65 281 0.0 3.0 0.00 0.00 0.00 71 1012.3
20260901174549 64 284 1.0 2.0 0.00 0.00 0.00 75 1012.2
20260901173048 63 0 0.0 1.0 0.00 0.00 0.00 75 1012.3
20260901171542 63 0 0.0 1.0 0.00 0.00 0.00 78 1012.2
20260901170051 62 0 0.0 1.0 0.00 0.00 0.00 80 1012.2
20260901164550 61 0 0.0 1.0 0.00 0.00 0.00 81 1012.1
20260901163059 61 293 0.0 2.0 0.00 0.00 0.00 83 1012.3
20260901161559 60 315 0.0 2.0 0.00 0.00 0.00 85 1012.4
20260901160047 59 294 0.0 2.0 0.00 0.00 0.00 86 1012.5
20260901154612 59 0 0.0 2.0 0.00 0.00 0.00 86 1012.6
20260901153051 59 287 1.0 3.0 0.00 0.00 0.00 87 1012.6
20260901151548 59 0 0.0 3.0 0.00 0.00 0.00 86 1012.5
20260901150105 59 276 0.0 2.0 0.00 0.00 0.00 86 1012.4
20260901144552 59 0 0.0 1.0 0.00 0.00 0.00 87 1012.4
20260901143049 59 274 0.0 2.0 0.00 0.00 0.00 86 1012.3
20260901141600 59 0 0.0 0.0 0.00 0.00 0.00 85 1012.1
20260901140056 59 0 0.0 0.0 0.00 0.00 0.00 85 1011.9
20260901134549 59 0 0.0 0.0 0.00 0.00 0.00 84 1011.9
20260901133051 59 0 0.0 0.0 0.00 0.00 0.00 83 1011.8
20260901131543 59 0 0.0 0.0 0.00 0.00 0.00 84 1011.8